Location: Unspecified
(54.2531°N, 0.0000°E)
Time: 19:36:35
(UTC+00:00)

Cosmos 2333 - Visible Passes

Search period start: 04 April 2026 00:00
Search period end: 14 April 2026 00:00
Orbit: 831 x 862 km, 70.9° (Epoch: 29 March)

Date Brightness Start Highest point End Pass type
(mag) Time Alt. Az. Time Alt. Az. Time Alt. Az.
4 Apr 6.7 00:31:06 10° WNW 00:34:55 18° NNW 00:38:43 10° NNE visible
4 Apr 6.9 02:18:17 10° NNW 02:21:25 15° N 02:24:34 10° NE visible
4 Apr 6.4 04:02:54 10° NNW 04:07:37 27° NNE 04:12:20 10° E visible
4 Apr 4.4 20:46:00 10° S 20:51:18 46° ESE 20:56:38 10° NE visible
4 Apr 5.2 22:30:12 10° WSW 22:35:32 44° NW 22:40:56 10° NNE visible
5 Apr 6.7 00:17:22 10° WNW 00:21:12 18° NNW 00:25:02 10° NNE visible
5 Apr 6.9 02:04:34 10° NNW 02:07:42 15° N 02:10:51 10° NE visible
5 Apr 6.4 03:49:12 10° NNW 03:53:55 26° NNE 03:58:36 10° E visible
5 Apr 4.4 20:32:19 10° S 20:37:38 45° ESE 20:42:56 10° NE visible
5 Apr 5.2 22:16:29 10° WSW 22:21:51 45° NW 22:27:14 10° NNE visible
6 Apr 6.7 00:03:37 10° WNW 00:07:29 18° NNW 00:11:21 10° NNE visible
6 Apr 7.0 01:50:51 10° NNW 01:53:59 15° N 01:57:07 10° NE visible
6 Apr 6.4 03:35:31 10° NNW 03:40:12 26° NNE 03:44:53 10° E visible
6 Apr 4.4 20:18:40 10° S 20:23:56 44° ESE 20:29:14 10° NE visible
6 Apr 5.2 22:02:46 10° WSW 22:08:09 46° NW 22:13:33 10° NNE visible
6 Apr 6.7 23:49:53 10° WNW 23:53:45 19° NNW 23:57:39 10° NNE visible
7 Apr 7.0 01:37:09 10° NNW 01:40:15 15° N 01:43:24 10° NE visible
7 Apr 6.5 03:21:50 10° NNW 03:26:29 26° NNE 03:31:09 10° E visible
7 Apr 4.5 20:05:01 10° S 20:10:16 44° ESE 20:15:33 10° NE visible
7 Apr 5.2 21:49:04 10° WSW 21:54:26 47° NW 21:59:52 10° NNE visible
7 Apr 6.8 23:36:09 10° WNW 23:40:03 19° NNW 23:43:58 10° NNE visible
8 Apr 7.1 01:23:26 10° NNW 01:26:32 15° N 01:29:39 10° NE visible
8 Apr 6.5 03:08:08 10° NNW 03:12:47 25° NNE 03:17:26 10° E visible
8 Apr 4.5 19:51:21 10° S 19:56:35 43° ESE 20:01:51 10° NE visible
8 Apr 5.2 21:35:21 10° WSW 21:40:45 47° NW 21:46:11 10° NNE visible
8 Apr 6.8 23:22:24 10° WNW 23:26:20 19° NNW 23:30:16 10° NNE visible
9 Apr 7.1 01:09:43 10° NNW 01:12:49 15° N 01:15:56 10° NE visible
9 Apr 6.5 02:54:28 10° NNW 02:59:04 25° NNE 03:03:42 10° E visible
9 Apr 4.5 19:37:42 10° S 19:42:54 42° ESE 19:48:09 10° NE visible
9 Apr 5.2 21:21:39 10° WSW 21:27:04 48° NW 21:32:30 10° NNE visible
9 Apr 6.8 23:08:41 10° WNW 23:12:37 19° NNW 23:16:35 10° NNE visible
10 Apr 7.2 00:56:00 10° NNW 00:59:06 15° N 01:02:12 10° NE visible
10 Apr 6.5 02:40:46 10° NNW 02:45:22 25° NNE 02:49:58 10° E visible
10 Apr 4.5 04:24:47 10° NNW 04:30:27 76° NE 04:36:08 10° SE visible
10 Apr 4.6 19:24:03 10° S 19:29:14 41° ESE 19:34:27 10° NE visible
10 Apr 5.2 21:07:56 10° WSW 21:13:22 49° NW 21:18:49 10° NNE visible
10 Apr 6.8 22:54:56 10° WNW 22:58:54 19° NNW 23:02:54 10° NNE visible
11 Apr 7.2 00:42:18 10° NNW 00:45:23 15° N 00:48:29 10° NE visible
11 Apr 6.5 02:27:05 10° NNW 02:31:40 25° NNE 02:36:14 10° E visible
11 Apr 4.5 04:11:06 10° NNW 04:16:46 75° NE 04:22:26 10° SE visible
11 Apr 5.2 20:54:14 10° WSW 20:59:40 50° NW 21:05:08 10° NNE visible
11 Apr 6.8 22:41:11 10° WNW 22:45:12 19° NNW 22:49:12 10° NNE visible
12 Apr 7.2 00:28:35 10° NNW 00:31:40 15° N 00:34:46 10° NE visible
12 Apr 6.6 02:13:24 10° NNW 02:17:57 24° NNE 02:22:31 10° E visible
12 Apr 4.5 03:57:25 10° NNW 04:03:05 73° NE 04:08:45 10° SE visible
12 Apr 5.1 20:40:31 10° SW 20:45:58 51° NW 20:51:27 10° NNE visible
12 Apr 6.8 22:27:28 10° WNW 22:31:28 20° NNW 22:35:31 10° NNE visible
13 Apr 7.2 00:14:52 10° NNW 00:17:56 15° N 00:21:02 10° NE visible
13 Apr 6.6 01:59:43 10° NNW 02:04:15 24° NNE 02:08:47 10° E visible
13 Apr 4.5 03:43:44 10° NNW 03:49:24 72° NE 03:55:03 10° SE visible
13 Apr 5.1 20:26:49 10° SW 20:32:16 52° NW 20:37:46 10° NNE visible
13 Apr 6.9 22:13:43 10° WNW 22:17:46 20° NNW 22:21:50 10° NNE visible
